Find Starlink 34301

NORAD ID: 64349 Int'l Des: 2025-126 Owner: SPXS Country: US Constellation: starlink operational
LEOCIRCULAR

当前视图

正在加载3D地球...

About Starlink 34301

Starlink 34301 (NORAD 64349) is a starlink constellation satellite (v2 mini) launched Jun 13, 2025 by SPXS of US. It operates in LEO, CIRCULAR orbit with a mass of 575.00 kg.

即将过境

Passes for default location (London). Set your location on the main map for personalized predictions.

高度历史

Loading altitude history...

两行轨道根数

1 64349U 25126F 26264.25718798 .00016286 00000-0 56941-3 0 9990
2 64349 69.9998 259.0619 0003223 267.8206 92.2600 15.29598653 70033
Epoch: Sep 21, 2026 • Age: 20 hours

当前状态

高度 499.9 km
远地点 / 近地点 N/A
速度 7.61 km/s
星下点 -68.46°S, 156.07°E
发射日期 Jun 13, 2025
运行时间 1.2 years
类型 internet

技术详情

分类 Payload
质量 575.00 kg
干质量 530.00 kg
长度 0.30 m
跨度 29.00 m
形状 ? Box + pan
制造商 SPXS
平台类型 Starlink V2MO
阶段状态 In Orbit
所有者/国家 SPXS/US

Most Searched